{"data":{"norad_id":69524,"intl_designator":"2026-133S","name":"STARLINK-37352","alt_names":[],"object_type":"PAYLOAD","status":"ACTIVE","operator":null,"country":"US","launch_date":"2026-06-12","launch_site_code":"AFETR","launch_vehicle":null,"mission":null,"orbit_class":"UNKNOWN","rcs_meters":null,"size_class":null,"mass_kg":null,"dimensions":null,"purposes":["comms"],"wikipedia_slug":null,"has_3d_model":false,"image_url":null,"decayed_at":null,"tle_current":{"epoch":"2026-09-19T13:40:17.444640Z","epoch_age_seconds":105887,"freshness":"FRESH","line1":"1 69524U 26133S   26262.56964635  .00013723  00000+0  41651-3 0  9998","line2":"2 69524  53.1571 233.8870 0001360  92.3136 267.8022 15.34402986 16629","mean_motion":15.34402986,"eccentricity":0.000136,"inclination_deg":53.1571,"raan_deg":233.887,"arg_perigee_deg":92.3136,"mean_anomaly_deg":267.8022,"bstar":0.00041651,"rev_number":1662,"period_min":93.84757545043,"perigee_km":461.76401213456,"apogee_km":463.62471826589,"semimajor_km":6840.8313652002,"source":"CELESTRAK","updated_at":"2026-09-20T09:00:44.238617Z"}}}